[[{"header":{"parameterUnit":"m.s-1","parameterCategory":1,"la1":30.2991,"la2":30.254,"lo1":-89.0895,"lo2":-89.0444,"dy":0.0017,"dx":0.0017,"nx":28,"ny":28,"refTime":"2025-05-27T21:00:00:Z","depth":0,"parameterNumber":2,"parameterNumberName":"U-component_of_WINDS"},"data":[0,0,0,0,0,0,0,0,0,0,0,0,0,0,0,0,0,0,0,0,0,0,0,0,0,0,0,0,0,0,0,0,0,0,0,0,0,0,0,0,0,0,0,0,0,0,0,0,0,0,0,0,0,0,0,0,0,0,1.5376,1.5374,0,1.5118,1.5115,1.5112,1.4819,1.4815,1.481,1.4806,1.4557,1.4554,1.4552,0,0,0,0,0,0,0,0,0,0,0,0,0,1.5617,1.5614,1.5377,1.5373,1.537,1.5119,1.5115,1.5112,1.482,1.4815,1.4809,1.4804,1.4557,1.4554,1.4551,0,0,0,0,0,0,0,0,0,0,0,0,0,1.5452,1.5613,1.5377,1.5194,1.5175,1.5119,1.5115,1.5111,1.4821,1.4815,1.4808,1.4802,1.4558,1.4555,1.4551,1.4659,0,0,1.4539,1.4538,0,0,0,0,0,0,0,0,1.5462,1.5443,1.5224,1.5206,1.5185,1.4994,1.5108,1.496,1.4823,1.4956,1.4806,1.4799,1.4708,1.4692,1.4658,1.4648,1.4637,1.4539,1.4537,1.4535,1.4534,0,0,0,0,0,0,0,1.5473,1.5453,1.5275,1.5221,1.5197,1.5124,1.5094,1.5079,1.4873,1.4944,1.4922,1.4895,1.4697,1.4663,1.465,1.4633,1.4539,1.4536,1.4533,1.4532,1.4686,1.4692,0,0,0,0,0,0,1.5512,1.5464,1.5283,1.5267,1.5309,1.5126,1.5091,1.5062,1.4872,1.4836,1.49,1.4882,1.4673,1.4655,1.4641,1.475,1.4535,1.4531,1.4529,1.468,1.4687,1.4694,0,0,0,0,0,0,1.5518,1.5498,1.5293,1.5359,1.5327,1.5128,1.5098,1.5061,1.5026,1.4839,1.4802,1.4904,1.4667,1.4646,1.4653,1.4737,1.453,1.4526,1.4672,1.4682,1.4691,1.4974,0,0,0,0,0,0,1.5526,1.5502,1.5543,1.5362,1.5325,1.5312,1.5103,1.506,1.5019,1.4992,1.4832,1.48,1.466,1.466,1.4649,1.4728,1.4523,1.4664,1.4677,1.4688,1.4957,1.4992,1.5022,0,0,0,0,0,1.5536,1.5639,1.5547,1.5527,1.5371,1.5317,1.5296,1.5129,1.5027,1.5065,1.4941,1.4805,1.4727,1.4664,1.4649,1.4728,1.4658,1.4673,1.4687,1.4942,1.4985,1.5022,0,0,0,0,0,0,1.5844,1.5613,1.5508,1.5555,1.5457,1.5268,1.5313,1.5182,1.5115,1.5094,1.4892,1.4858,1.4889,1.4807,1.474,1.4816,1.4672,1.4684,1.4871,1.491,1.4943,1.4966,1.452,0,0,0,0,0,1.5915,1.5889,1.5688,1.5749,1.5704,1.5516,1.5487,1.5364,1.5257,1.5216,1.5094,1.4997,1.4948,1.4924,1.487,1.4938,1.4898,1.4984,1.5017,1.5045,1.5061,1.5084,1.5119,1.4742,1.4741,1.4741,0,0,1.6068,1.5937,1.5935,1.5807,1.5717,1.5694,1.5485,1.5472,1.5452,1.5215,1.5213,1.5118,1.4996,1.5032,1.5042,1.4966,1.5153,1.5063,1.5087,1.5088,1.5102,1.5138,1.517,1.4751,1.475,1.4748,0,0,1.6334,1.6232,1.6268,1.6177,1.6038,1.591,1.5918,1.5743,1.567,1.5661,1.5479,1.5452,1.5377,1.5294,1.5243,1.5456,1.5327,1.5443,1.5621,1.5645,1.5675,1.57,1.5776,1.5806,1.5458,1.5458,1.5459,0,1.6543,1.6499,1.6305,1.6298,1.6245,1.6016,1.605,1.5972,1.5827,1.5795,1.5707,1.5598,1.55,1.5511,1.556,1.5526,1.5528,1.5467,1.5685,1.5709,1.573,1.58,1.5829,1.5474,1.5472,1.547,1.5469,0,1.676,1.6731,1.6776,1.6631,1.6581,1.6597,1.6402,1.6375,1.625,1.6131,1.612,1.599,1.5903,1.5894,1.5779,1.5885,1.584,1.5722,1.5575,1.5785,1.5847,1.5872,1.5496,1.549,1.5486,1.5482,0,0,1.7232,1.6963,1.6985,1.6911,1.6732,1.6707,1.6704,1.661,1.659,1.6491,1.6486,1.6416,1.63,1.6242,1.6111,1.6132,1.6305,1.6009,1.6003,1.6071,1.6411,1.6506,1.6541,1.6212,1.6216,1.6219,1.6421,0,1.7468,1.7451,1.7268,1.7304,1.7271,1.7043,1.7041,1.693,1.6813,1.6768,1.6638,1.6592,1.6443,1.6405,1.6414,1.6283,1.6372,1.6264,1.6208,1.6208,1.6253,1.6573,1.6676,1.6875,1.6444,1.6448,1.6451,0,1.7748,1.7655,1.7687,1.7494,1.7473,1.7476,1.7368,1.7326,1.7192,1.7104,1.7029,1.6876,1.6859,1.6711,1.6684,1.6615,1.6577,1.6507,1.651,1.6507,1.635,1.6582,1.6934,1.6966,1.6488,1.6485,1.6482,0,1.809,1.7972,1.7972,1.7916,1.7693,1.7698,1.7605,1.7463,1.7414,1.7318,1.7283,1.719,1.7142,1.7072,1.6896,1.6805,1.6888,1.6727,1.6817,1.6822,1.6855,1.6857,1.7212,1.6821,1.682,1.682,1.6819,0,1.8379,1.8408,1.8121,1.8124,1.8145,1.7928,1.7956,1.7841,1.7713,1.7687,1.7482,1.7463,1.7228,1.718,1.7042,1.7038,1.7017,1.6947,1.6912,1.6969,1.6979,1.695,1.6934,1.6827,1.6826,1.6824,1.6823,0,1.8772,1.8581,1.8566,1.8348,1.8293,1.8319,1.8132,1.8123,1.7984,1.7953,1.7933,1.772,1.7651,1.7464,1.7352,1.7257,1.7294,1.7224,1.734,1.7318,1.7419,1.7414,1.7774,1.7809,1.7393,1.7397,1.74,0,1.8974,1.8988,1.8766,1.873,1.8643,1.859,1.8534,1.8316,1.8267,1.8105,1.8115,1.8027,1.7948,1.7848,1.7685,1.7593,1.7522,1.7653,1.7509,1.7563,1.7527,1.7532,1.7531,1.769,1.7696,1.77,1.7704,0,1.9351,1.9251,1.9178,1.9067,1.9004,1.8908,1.8801,1.8784,1.8538,1.8492,1.8414,1.8351,1.8226,1.8142,1.8022,1.7926,1.7776,1.7747,1.7763,1.7828,1.7896,1.7862,1.7432,1.7744,1.774,1.7737,1.7735,1.7733,1.9656,1.9654,1.9495,1.9416,1.9308,1.9209,1.9187,1.9039,1.8969,1.8848,1.872,1.8656,1.8508,1.8329,1.8241,1.8187,1.8109,1.8133,1.814,1.8151,1.8177,1.7895,1.8164,1.8163,1.8161,1.816,1.8159,0,2.0025,1.9906,1.9834,1.9685,1.9621,1.947,1.9339,1.9297,1.9241,1.9112,1.9031,1.8938,1.885,1.8672,1.8568,1.8559,1.8486,1.8539,1.8543,1.8522,1.8253,1.8251,1.8599,1.8599,1.8599,1.8599,1.8599,1.8599,2.0211,2.0199,2.0077,2.0006,1.9886,1.9817,1.9754,1.9659,1.9553,1.9456,1.9379,1.9258,1.9108,1.8988,1.89,1.8849,1.8823,1.89,1.8828,1.8583,1.8542,1.8503,1.8499,1.8894,1.8895,1.91,1.9103,1.9104]},{"header":{"parameterUnit":"m.s-1","parameterCategory":1,"la1":30.2991,"la2":30.254,"lo1":-89.0895,"lo2":-89.0444,"dy":0.0017,"dx":0.0017,"nx":28,"ny":28,"refTime":"2025-05-27T21:00:00:Z","depth":0,"parameterNumber":3,"parameterNumberName":"V-component_of_WINDS"},"data":[0,0,0,0,0,0,0,0,0,0,0,0,0,0,0,0,0,0,0,0,0,0,0,0,0,0,0,0,0,0,0,0,0,0,0,0,0,0,0,0,0,0,0,0,0,0,0,0,0,0,0,0,0,0,0,0,0,0,-2.71,-2.7098,0,-2.6878,-2.6875,-2.6873,-2.6955,-2.6961,-2.6966,-2.6971,-2.6713,-2.6702,-2.669,0,0,0,0,0,0,0,0,0,0,0,0,0,-2.7562,-2.7553,-2.71,-2.7097,-2.7095,-2.6878,-2.6875,-2.6872,-2.6955,-2.6961,-2.6967,-2.6973,-2.6717,-2.6703,-2.6689,0,0,0,0,0,0,0,0,0,0,0,0,0,-2.7352,-2.755,-2.7101,-2.711,-2.7109,-2.6879,-2.6875,-2.6871,-2.6953,-2.6961,-2.6969,-2.6976,-2.6722,-2.6705,-2.6687,-2.6425,0,0,-2.6634,-2.6626,0,0,0,0,0,0,0,0,-2.7364,-2.7335,-2.7112,-2.7109,-2.7108,-2.6953,-2.6944,-2.6721,-2.6951,-2.7011,-2.6971,-2.698,-2.6785,-2.6763,-2.6703,-2.6413,-2.6402,-2.6632,-2.6622,-2.6614,-2.6609,0,0,0,0,0,0,0,-2.7378,-2.7345,-2.7011,-2.7108,-2.7105,-2.7115,-2.7094,-2.6902,-2.6856,-2.7007,-2.7012,-2.6987,-2.6785,-2.672,-2.6698,-2.6399,-2.6633,-2.6617,-2.6607,-2.66,-2.5865,-2.5856,0,0,0,0,0,0,-2.7398,-2.7357,-2.7018,-2.7005,-2.7258,-2.71,-2.7077,-2.6994,-2.6859,-2.6847,-2.698,-2.6991,-2.6746,-2.6718,-2.6689,-2.6359,-2.6615,-2.6598,-2.6588,-2.5874,-2.5863,-2.5853,0,0,0,0,0,0,-2.7408,-2.7367,-2.7027,-2.7182,-2.714,-2.7085,-2.6991,-2.6986,-2.6921,-2.684,-2.6829,-2.6924,-2.6751,-2.6713,-2.6489,-2.6352,-2.659,-2.6574,-2.5885,-2.5871,-2.5858,-2.5707,0,0,0,0,0,0,-2.7421,-2.7371,-2.7278,-2.718,-2.7132,-2.684,-2.6983,-2.6976,-2.6894,-2.6906,-2.6784,-2.677,-2.6754,-2.6514,-2.6471,-2.6332,-2.6561,-2.5896,-2.5878,-2.5862,-2.5724,-2.569,-2.5661,0,0,0,0,0,-2.7437,-2.7242,-2.7273,-2.7232,-2.7017,-2.6833,-2.6804,-2.6797,-2.6884,-2.6783,-2.6729,-2.6774,-2.6378,-2.6491,-2.6443,-2.6296,-2.5904,-2.5883,-2.5864,-2.5737,-2.5697,-2.5662,0,0,0,0,0,0,-2.7316,-2.7229,-2.7263,-2.7033,-2.694,-2.6848,-2.6722,-2.6756,-2.663,-2.6645,-2.6635,-2.6606,-2.6371,-2.6314,-2.6441,-2.6028,-2.6152,-2.6121,-2.6072,-2.6033,-2.6002,-2.6013,-2.6546,0,0,0,0,0,-2.7266,-2.7134,-2.7061,-2.6863,-2.6816,-2.6777,-2.6697,-2.67,-2.66,-2.6558,-2.6489,-2.6381,-2.623,-2.6131,-2.599,-2.5721,-2.5684,-2.5595,-2.5564,-2.5539,-2.5507,-2.5343,-2.5297,-2.5786,-2.5787,-2.5787,0,0,-2.7153,-2.7089,-2.7005,-2.6837,-2.6766,-2.6616,-2.6743,-2.6583,-2.6467,-2.6531,-2.6312,-2.6258,-2.6136,-2.5884,-2.5769,-2.5828,-2.5366,-2.5513,-2.5494,-2.5475,-2.5317,-2.5271,-2.523,-2.5773,-2.5775,-2.5777,0,0,-2.6869,-2.6816,-2.6639,-2.6566,-2.646,-2.6434,-2.6392,-2.6293,-2.626,-2.6044,-2.6085,-2.5943,-2.569,-2.5596,-2.5515,-2.5192,-2.5221,-2.5147,-2.4977,-2.4817,-2.4779,-2.4744,-2.4611,-2.4566,-2.5119,-2.5118,-2.5118,0,-2.674,-2.6527,-2.6541,-2.6374,-2.6291,-2.6354,-2.6164,-2.6091,-2.5939,-2.5874,-2.5948,-2.5622,-2.5546,-2.5265,-2.5186,-2.5125,-2.5061,-2.5153,-2.4786,-2.4751,-2.4718,-2.4591,-2.4543,-2.5109,-2.511,-2.5111,-2.5112,0,-2.6364,-2.6216,-2.6084,-2.5942,-2.5847,-2.567,-2.5644,-2.5544,-2.5556,-2.5518,-2.5288,-2.52,-2.5034,-2.4972,-2.498,-2.4686,-2.4724,-2.4793,-2.4913,-2.4662,-2.454,-2.4493,-2.5095,-2.5098,-2.5101,-2.5103,0,0,-2.5991,-2.5861,-2.581,-2.574,-2.5627,-2.5504,-2.5326,-2.5173,-2.5079,-2.4973,-2.481,-2.4593,-2.4652,-2.456,-2.4558,-2.4421,-2.4148,-2.4502,-2.4499,-2.4424,-2.3799,-2.3736,-2.3681,-2.4175,-2.4166,-2.4159,-2.3803,0,-2.5686,-2.5381,-2.5385,-2.5095,-2.4948,-2.5003,-2.4844,-2.4749,-2.471,-2.4569,-2.4523,-2.4362,-2.4462,-2.4404,-2.4273,-2.421,-2.4019,-2.4238,-2.4004,-2.3996,-2.4016,-2.3621,-2.3556,-2.3224,-2.3758,-2.375,-2.3745,0,-2.5288,-2.5172,-2.487,-2.4768,-2.4706,-2.4565,-2.4417,-2.429,-2.4178,-2.4158,-2.4054,-2.4072,-2.3874,-2.4014,-2.3731,-2.3879,-2.3785,-2.3739,-2.3725,-2.3689,-2.3843,-2.3555,-2.3121,-2.3063,-2.3674,-2.3679,-2.3684,0,-2.5023,-2.4794,-2.4579,-2.4521,-2.4402,-2.4297,-2.424,-2.4139,-2.4043,-2.3913,-2.3846,-2.3694,-2.3604,-2.3479,-2.3448,-2.3557,-2.3158,-2.33,-2.3119,-2.3118,-2.3019,-2.3022,-2.2544,-2.2989,-2.299,-2.2991,-2.2992,0,-2.4671,-2.4479,-2.4458,-2.4323,-2.4105,-2.411,-2.3889,-2.384,-2.3748,-2.3594,-2.3635,-2.3488,-2.3466,-2.3309,-2.3285,-2.3043,-2.3007,-2.2972,-2.2964,-2.2958,-2.2959,-2.2883,-2.2897,-2.2978,-2.298,-2.2983,-2.2985,0,-2.4333,-2.4314,-2.4081,-2.3988,-2.396,-2.3801,-2.3714,-2.3579,-2.3547,-2.335,-2.3304,-2.3246,-2.3063,-2.3026,-2.2808,-2.2791,-2.2497,-2.2522,-2.2536,-2.2532,-2.2346,-2.2357,-2.1787,-2.1704,-2.2221,-2.2216,-2.2212,0,-2.4101,-2.3955,-2.3847,-2.3752,-2.3691,-2.3538,-2.3441,-2.3437,-2.3332,-2.3191,-2.3067,-2.2892,-2.2748,-2.2451,-2.238,-2.221,-2.2218,-2.2031,-2.2191,-2.2185,-2.2192,-2.2193,-2.217,-2.1993,-2.1988,-2.1984,-2.198,0,-2.3686,-2.3682,-2.3547,-2.3403,-2.3288,-2.3173,-2.3064,-2.2981,-2.296,-2.2837,-2.2655,-2.2545,-2.2324,-2.214,-2.197,-2.1898,-2.1925,-2.1933,-2.1878,-2.186,-2.1867,-2.1841,-2.2431,-2.1941,-2.1945,-2.1948,-2.195,-2.1952,-2.338,-2.3248,-2.3149,-2.2991,-2.2911,-2.2806,-2.2671,-2.2622,-2.2473,-2.2297,-2.2304,-2.2098,-2.1978,-2.1754,-2.1671,-2.1501,-2.1557,-2.1484,-2.1461,-2.1437,-2.1411,-2.1911,-2.1472,-2.1473,-2.1474,-2.1475,-2.1476,0,-2.295,-2.2891,-2.2748,-2.2595,-2.2467,-2.2524,-2.2403,-2.2287,-2.211,-2.2002,-2.1862,-2.1643,-2.1465,-2.1383,-2.1203,-2.1081,-2.1088,-2.1031,-2.103,-2.1008,-2.1381,-2.1437,-2.1027,-2.1027,-2.1027,-2.1027,-2.1028,-2.1028,-2.2711,-2.2483,-2.2468,-2.2195,-2.2134,-2.194,-2.1863,-2.1761,-2.1674,-2.1431,-2.1286,-2.1239,-2.1134,-2.0947,-2.078,-2.0759,-2.0681,-2.0613,-2.0596,-2.094,-2.0985,-2.1028,-2.108,-2.0601,-2.0601,-2.0236,-2.0233,-2.023]}]]